Cahokia, IL

5:10 PM CDT on March 23, 2017 (GMT -0500)
Saint Louis Downtown

Weather History for KCPS - March, 2014

Change the Weather History Date:

Saturday, March 8, 2014

  Actual Average Record
Temperature  
Mean Temperature 38 °F -  
Max Temperature 42 °F 52 °F 78 °F (2003)
Min Temperature 35 °F 27 °F 9 °F (1943)
Degree Days  
Heating Degree Days 26    
Moisture  
Dew Point 34 °F    
Average Humidity 83    
Maximum Humidity 89    
Minimum Humidity 79    
Precipitation  
Precipitation 0.00 in - - ()
Sea Level Pressure  
Sea Level Pressure 30.17 in    
Wind  
Wind Speed 8 mph (NNW)    
Max Wind Speed 17 mph    
Max Gust Speed -    
Visibility 4 miles    
Events      
Averages and records for this station are not official NWS values.
T = Trace of Precipitation, MM = Missing Value Source: NWS Daily Summary

Daily Weather History Graph

Daily Weather History Graph

Search for Another Location

Airport or City:

Trip Planner

Search our weather history database for the weather conditions in past years. The results will help you decide how hot, cold, wet, or windy it might be!

Date:

Astronomy

Mar. 08, 2014 Rise Set
Actual Time 6:22 AM CST 6:00 PM CST
Civil Twilight 5:56 AM CST 6:27 PM CST
Nautical Twilight 5:25 AM CST 6:58 PM CST
Astronomical Twilight 4:54 AM CST 7:28 PM CST
Moon 11:08 AM CST (3/8) 12:54 AM CST (3/8)
Length of Visible Light 12h 31m
Length of Day
11h 38m
First Quarter, 52% of the Moon is Illuminated
Mar 8
First Quarter
Mar 16
Full
Mar 23
Last Quarter
Mar 30
New
Apr 7
First Quarter

Hourly Weather History & Observations

Time (CST) Temp. Windchill Dew Point Humidity Pressure Visibility Wind Dir Wind Speed Gust Speed Precip Events Conditions
12:53 AM 37.9 °F - 32.0 °F 79% 29.99 in 10.0 mi Calm Calm - N/A   Clear
1:53 AM 35.1 °F - 30.9 °F 85% 29.99 in 9.0 mi Calm Calm - N/A   Clear
2:53 AM 36.0 °F 29.6 °F 30.9 °F 82% 30.00 in 9.0 mi WNW 8.1 mph - N/A   Mostly Cloudy
3:53 AM 37.0 °F 32.4 °F 32.0 °F 82% 30.01 in 10.0 mi NW 5.8 mph - N/A   Clear
4:53 AM 37.9 °F 34.4 °F 32.0 °F 79% 30.03 in 8.0 mi NNW 4.6 mph - N/A   Mostly Cloudy
5:53 AM 37.9 °F 35.5 °F 33.1 °F 83% 30.05 in 7.0 mi North 3.5 mph - N/A   Overcast
6:53 AM 37.0 °F 30.4 °F 33.1 °F 86% 30.07 in 3.0 mi NNW 9.2 mph - N/A   Partly Cloudy
7:43 AM 37.0 °F 28.5 °F 33.1 °F 86% 30.08 in 2.5 mi NNW 13.8 mph - N/A   Mostly Cloudy
7:50 AM 37.4 °F 29.3 °F 33.8 °F 87% 30.09 in 2.5 mi NNW 12.7 mph - N/A   Mostly Cloudy
7:53 AM 37.0 °F 28.5 °F 33.1 °F 86% 30.10 in 2.5 mi NNW 13.8 mph - N/A   Mostly Cloudy
8:24 AM 37.0 °F 28.9 °F 33.1 °F 86% 30.11 in 3.0 mi North 12.7 mph - N/A   Overcast
8:53 AM 37.0 °F 28.9 °F 34.0 °F 89% 30.13 in 3.0 mi NNW 12.7 mph - N/A   Overcast
9:53 AM 39.9 °F 32.9 °F 35.1 °F 83% 30.16 in 3.0 mi NW 11.5 mph - N/A   Haze
10:31 AM 41.0 °F 33.1 °F 36.0 °F 82% 30.17 in 3.0 mi NW 15.0 mph - N/A   Haze
10:42 AM 41.0 °F 33.1 °F 36.0 °F 82% 30.18 in 2.5 mi NW 15.0 mph - N/A   Haze
10:53 AM 39.9 °F 31.1 °F 35.1 °F 83% 30.19 in 2.5 mi NW 17.3 mph - N/A   Haze
11:00 AM 39.9 °F 32.1 °F 35.1 °F 83% 30.18 in 2.5 mi NW 13.8 mph - N/A   Haze
11:41 AM 41.0 °F 34.3 °F 36.0 °F 82% 30.18 in 3.0 mi NNW 11.5 mph - N/A   Haze
11:53 AM 41.0 °F 33.9 °F 36.0 °F 82% 30.19 in 3.0 mi NW 12.7 mph - N/A   Haze
12:53 PM 42.1 °F 34.5 °F 36.0 °F 79% 30.16 in 3.0 mi North 15.0 mph - N/A   Haze
1:53 PM 41.0 °F 33.5 °F 35.1 °F 79% 30.18 in 3.0 mi North 13.8 mph - N/A   Haze
2:53 PM 39.9 °F 32.1 °F 35.1 °F 83% 30.20 in 3.0 mi North 13.8 mph - N/A   Haze
3:02 PM 39.9 °F 32.9 °F 35.1 °F 83% 30.19 in 2.5 mi North 11.5 mph - N/A   Haze
3:28 PM 39.9 °F 32.5 °F 35.1 °F 83% 30.19 in 2.5 mi North 12.7 mph - N/A   Haze
3:53 PM 39.9 °F 32.9 °F 35.1 °F 83% 30.22 in 2.5 mi NNW 11.5 mph - N/A   Haze
4:53 PM 39.0 °F 32.3 °F 34.0 °F 82% 30.24 in 2.5 mi North 10.4 mph - N/A   Haze
5:53 PM 37.9 °F 31.5 °F 34.0 °F 86% 30.27 in 2.5 mi NNW 9.2 mph - N/A   Overcast
6:53 PM 37.9 °F 30.5 °F 33.1 °F 83% 30.28 in 2.5 mi North 11.5 mph - N/A   Haze
7:00 PM 37.0 °F 29.8 °F 33.1 °F 86% 30.27 in 4.0 mi North 10.4 mph - N/A   Overcast
7:53 PM 37.0 °F 30.4 °F 32.0 °F 82% 30.30 in 5.0 mi North 9.2 mph - N/A   Haze
8:53 PM 37.0 °F 32.4 °F 32.0 °F 82% 30.31 in 5.0 mi North 5.8 mph - N/A   Haze
9:51 PM 37.4 °F 32.8 °F 32.0 °F 81% 30.31 in 6.0 mi North 5.8 mph - N/A   Haze
9:53 PM 37.0 °F 32.4 °F 32.0 °F 82% 30.32 in 6.0 mi NNW 5.8 mph - N/A   Haze
10:53 PM 36.0 °F 30.3 °F 32.0 °F 86% 30.32 in 6.0 mi North 6.9 mph - N/A   Overcast
11:53 PM 36.0 °F 31.1 °F 30.9 °F 82% 30.32 in 6.0 mi North 5.8 mph - N/A   Haze